Location: Woodhurst
(52.3667°N, 0.0667°W)
Time: 05:20:42
(UTC+00:00)

SAR-Lupe-2 - Pass Details

Date: 19 May 2025
Orbit: 478 x 487 km, 98.1° (Epoch: 16 May)

Event Time Altitude Azimuth Distance (km) Brightness Sun altitude
Exits shadow 20:57:49 - 169° (S) 1,887 6.0 -7.9°
Reaches altitude 10° 20:58:23 10° 170° (S) 1,653 5.7 -7.9°
Maximum altitude 21:01:55 75° 255° (WSW) 504 3.7 -8.3°
Drops below altitude 10° 21:05:30 10° 342° (NNW) 1,670 7.5 -8.7°
Sets 21:07:35 0° 344° (NNW) 2,556 8.6 -8.9°
